Dumas, TX

9:59 PM CST on December 02, 2016 (GMT -0600)
Moore County

Weather History for KDUX - April, 2013

Change the Weather History Date:

Tuesday, April 16, 2013

  Actual Average (KDHT) Record (KDHT)
Temperature  
Mean Temperature 48 °F 54 °F  
Max Temperature 61 °F 70 °F 89 °F (1962)
Min Temperature 35 °F 38 °F 23 °F (1961)
Degree Days  
Heating Degree Days 17 11  
Month to date heating degree days 217  
Since 1 July heating degree days 4471  
Cooling Degree Days 0 0  
Month to date cooling degree days 0  
Year to date cooling degree days 0  
Moisture  
Dew Point 31 °F    
Average Humidity 57    
Maximum Humidity 79    
Minimum Humidity 34    
Precipitation  
Precipitation 0.00 in 0.03 in 0.68 in (1992)
Month to date precipitation 0.51  
Year to date precipitation 2.60  
Snow  
Snow 0.00 in 0.00 in 1.10 in (1998)
Month to date snowfall 0.9  
Since 1 July snowfall 18.6  
Snow Depth -    
Sea Level Pressure  
Sea Level Pressure 29.90 in    
Wind  
Wind Speed 15 mph (ENE)    
Max Wind Speed 21 mph    
Max Gust Speed 28 mph    
Visibility 10 miles    
Events      
T = Trace of Precipitation, MM = Missing Value Source: NWS Daily Summary

Daily Weather History Graph

Daily Weather History Graph

Search for Another Location

Airport or City:

Trip Planner

Search our weather history database for the weather conditions in past years. The results will help you decide how hot, cold, wet, or windy it might be!

Date:

Astronomy

Apr. 16, 2013 Rise Set
Actual Time 7:13 AM CDT 8:22 PM CDT
Civil Twilight 6:47 AM CDT 8:49 PM CDT
Nautical Twilight 6:15 AM CDT 9:20 PM CDT
Astronomical Twilight 5:42 AM CDT 9:53 PM CDT
Moon 11:38 AM CDT (4/16) 1:16 AM CDT (4/16)
Length of Visible Light 14h 02m
Length of Day
13h 09m
Waxing Crescent, 33% of the Moon is Illuminated
Apr 16
Waxing Crescent
Apr 18
First Quarter
Apr 25
Full
May 2
Last Quarter
May 9
New

Hourly Weather History & Observations

Time (CDT) Temp. Windchill Dew Point Humidity Pressure Visibility Wind Dir Wind Speed Gust Speed Precip Events Conditions
12:15 AM 52.3 °F - 43.2 °F 71% 29.77 in 10.0 mi East 20.7 mph 27.6 mph N/A   Clear
12:35 AM 48.9 °F - 39.6 °F 70% 29.78 in 10.0 mi East 18.4 mph 24.2 mph N/A   Clear
12:55 AM 46.8 °F - 37.6 °F 70% 29.79 in 10.0 mi East 16.1 mph 24.2 mph N/A   Clear
1:15 AM 43.2 °F 35.3 °F 33.6 °F 69% 29.80 in 10.0 mi ENE 17.3 mph - N/A   Clear
1:35 AM 41.7 °F 33.1 °F 33.4 °F 72% 29.80 in 10.0 mi ENE 18.4 mph 23.0 mph N/A   Clear
1:55 AM 40.6 °F 31.2 °F 34.2 °F 78% 29.82 in 10.0 mi ENE 20.7 mph 25.3 mph N/A   Clear
2:15 AM 39.2 °F 30.8 °F 33.1 °F 79% 29.85 in 10.0 mi NE 15.0 mph 19.6 mph N/A   Clear
2:35 AM 38.5 °F 29.2 °F 32.2 °F 78% 29.85 in 10.0 mi NE 17.3 mph 23.0 mph N/A   Scattered Clouds
2:55 AM 37.8 °F 29.0 °F 31.5 °F 78% 29.86 in 10.0 mi NE 15.0 mph 24.2 mph N/A   Scattered Clouds
3:15 AM 37.8 °F 28.6 °F 30.6 °F 75% 29.87 in 10.0 mi NNE 16.1 mph 21.9 mph N/A   Mostly Cloudy
3:35 AM 37.4 °F 27.2 °F 28.0 °F 69% 29.87 in 10.0 mi NNE 19.6 mph 24.2 mph N/A   Overcast
3:55 AM 37.4 °F 28.2 °F 26.8 °F 66% 29.88 in 10.0 mi NNE 16.1 mph 24.2 mph N/A   Overcast
4:15 AM 37.4 °F 27.2 °F 26.2 °F 64% 29.89 in 10.0 mi NNE 19.6 mph 25.3 mph N/A   Overcast
4:35 AM 37.6 °F 28.4 °F 26.2 °F 64% 29.90 in 10.0 mi NNE 16.1 mph 21.9 mph N/A   Overcast
4:55 AM 37.6 °F 28.1 °F 26.2 °F 64% 29.91 in 10.0 mi NNE 17.3 mph 21.9 mph N/A   Overcast
5:15 AM 37.6 °F 28.1 °F 26.2 °F 64% 29.92 in 10.0 mi North 17.3 mph 21.9 mph N/A   Mostly Cloudy
5:35 AM 36.9 °F 27.5 °F 25.3 °F 63% 29.93 in 10.0 mi North 16.1 mph - N/A   Mostly Cloudy
5:55 AM 36.5 °F 27.4 °F 24.4 °F 62% 29.93 in 10.0 mi North 15.0 mph 25.3 mph N/A   Overcast
6:15 AM 36.3 °F 26.4 °F 23.9 °F 61% 29.94 in 10.0 mi North 17.3 mph 23.0 mph N/A   Overcast
6:35 AM 36.1 °F 26.2 °F 23.9 °F 61% 29.95 in 10.0 mi NE 17.3 mph 25.3 mph N/A   Overcast
7:15 AM 36.1 °F 26.2 °F 25.3 °F 65% 29.96 in 10.0 mi NNE 17.3 mph 27.6 mph N/A   Overcast
7:35 AM 36.0 °F 26.7 °F 24.8 °F 64% 29.97 in 10.0 mi NNE 15.0 mph - N/A   Overcast
7:55 AM 35.6 °F 26.2 °F 25.3 °F 66% 29.98 in 10.0 mi NNE 15.0 mph - N/A   Overcast
8:15 AM 35.6 °F 26.2 °F 25.7 °F 67% 30.00 in 10.0 mi NNE 15.0 mph - N/A   Overcast
8:35 AM 35.8 °F 26.9 °F 25.3 °F 66% 30.01 in 10.0 mi NNE 13.8 mph - N/A   Overcast
8:55 AM 36.5 °F 27.8 °F 25.7 °F 65% 30.01 in 10.0 mi NE 13.8 mph 17.3 mph N/A   Overcast
9:15 AM 36.5 °F 28.7 °F 25.9 °F 65% 30.01 in 10.0 mi NNE 11.5 mph - N/A   Overcast
9:35 AM 37.4 °F 29.3 °F 26.1 °F 64% 30.00 in 10.0 mi NNE 12.7 mph - N/A   Mostly Cloudy
9:55 AM 37.8 °F 29.8 °F 26.4 °F 64% 30.01 in 10.0 mi NE 12.7 mph - N/A   Mostly Cloudy
10:15 AM 38.1 °F 31.2 °F 26.2 °F 62% 30.01 in 10.0 mi NNE 10.4 mph - N/A   Mostly Cloudy
10:35 AM 39.6 °F 33.5 °F 26.8 °F 60% 30.01 in 10.0 mi NNE 9.2 mph 17.3 mph N/A   Mostly Cloudy
10:55 AM 40.6 °F 33.8 °F 27.0 °F 58% 30.01 in 10.0 mi NNE 11.5 mph - N/A   Mostly Cloudy
11:35 AM 43.2 °F 37.4 °F 27.9 °F 55% 30.00 in 10.0 mi NE 10.4 mph - N/A   Mostly Cloudy
11:55 AM 44.2 °F 38.4 °F 28.2 °F 53% 30.00 in 10.0 mi ENE 11.5 mph - N/A   Overcast
12:15 PM 45.1 °F 39.5 °F 28.4 °F 52% 29.98 in 10.0 mi NNE 11.5 mph - N/A   Mostly Cloudy
12:35 PM 46.0 °F 40.6 °F 28.9 °F 51% 29.98 in 10.0 mi NE 11.5 mph 16.1 mph N/A   Clear
12:55 PM 47.3 °F - 29.7 °F 50% 29.97 in 10.0 mi NNE 8.1 mph - N/A   Clear
1:15 PM 48.9 °F - 30.7 °F 50% 29.96 in 10.0 mi NE 10.4 mph - N/A   Clear
1:55 PM 51.3 °F - 31.5 °F 47% 29.95 in 10.0 mi ESE 6.9 mph - N/A   Clear
2:15 PM 51.8 °F - 31.6 °F 46% 29.94 in 10.0 mi East 10.4 mph - N/A   Clear
2:35 PM 53.1 °F - 31.3 °F 43% 29.93 in 10.0 mi East 9.2 mph 16.1 mph N/A   Clear
2:55 PM 54.1 °F - 31.5 °F 42% 29.92 in 10.0 mi ENE 9.2 mph 17.3 mph N/A   Clear
3:55 PM 58.1 °F - 32.4 °F 38% 29.89 in 10.0 mi East 13.8 mph 18.4 mph N/A   Clear
4:35 PM 58.3 °F - 31.6 °F 36% 29.88 in 10.0 mi ESE 11.5 mph 18.4 mph N/A   Clear
4:55 PM 59.7 °F - 32.0 °F 35% 29.87 in 10.0 mi ESE 12.7 mph - N/A   Clear
5:15 PM 60.6 °F - 32.2 °F 34% 29.86 in 10.0 mi SE 11.5 mph - N/A   Clear
5:35 PM 61.2 °F - 32.7 °F 34% 29.86 in 10.0 mi SE 18.4 mph 21.9 mph N/A   Clear
5:55 PM 60.3 °F - 33.1 °F 36% 29.85 in 10.0 mi ESE 13.8 mph 20.7 mph N/A   Clear
6:15 PM 60.4 °F - 33.4 °F 36% 29.86 in 10.0 mi ESE 15.0 mph 19.6 mph N/A   Clear
6:35 PM 59.9 °F - 34.2 °F 38% 29.86 in 10.0 mi ESE 11.5 mph 18.4 mph N/A   Clear
6:55 PM 59.5 °F - 34.3 °F 39% 29.85 in 10.0 mi ESE 13.8 mph - N/A   Clear
7:15 PM 59.5 °F - 35.4 °F 41% 29.85 in 10.0 mi ESE 12.7 mph - N/A   Clear
7:35 PM 59.0 °F - 35.8 °F 42% 29.85 in 10.0 mi East 15.0 mph - N/A   Clear
7:55 PM 58.6 °F - 36.0 °F 43% 29.84 in 10.0 mi East 13.8 mph - N/A   Clear
8:15 PM 58.1 °F - 35.6 °F 43% 29.83 in 10.0 mi ESE 15.0 mph - N/A   Clear
8:35 PM 56.5 °F - 35.4 °F 45% 29.83 in 10.0 mi East 12.7 mph - N/A   Clear
8:55 PM 55.0 °F - 35.6 °F 48% 29.84 in 10.0 mi East 12.7 mph - N/A   Clear
9:15 PM 54.1 °F - 36.5 °F 51% 29.84 in 10.0 mi ESE 12.7 mph - N/A   Clear
9:35 PM 54.3 °F - 37.8 °F 54% 29.84 in 10.0 mi ESE 12.7 mph - N/A   Clear
9:55 PM 53.6 °F - 38.3 °F 56% 29.84 in 10.0 mi ESE 12.7 mph 18.4 mph N/A   Clear
10:15 PM 53.1 °F - 38.8 °F 59% 29.85 in 10.0 mi ESE 13.8 mph 18.4 mph N/A   Clear
10:35 PM 52.2 °F - 39.4 °F 62% 29.85 in 10.0 mi ESE 11.5 mph - N/A   Clear
10:55 PM 51.1 °F - 39.6 °F 65% 29.85 in 10.0 mi East 12.7 mph - N/A   Clear
11:15 PM 50.0 °F - 40.1 °F 69% 29.86 in 10.0 mi East 11.5 mph - N/A   Clear
11:35 PM 49.5 °F - 40.5 °F 71% 29.86 in 10.0 mi East 10.4 mph - N/A   Clear
11:55 PM 49.5 °F - 41.0 °F 73% 29.85 in 10.0 mi East 11.5 mph - N/A   Mostly Cloudy